VTK503 PADU-UHPP

Flight info

Callsign VTK503
Flight time 3h 27m
Altitude 36000
Route DUT1 ALEUT DCT CRYPT A342 PINSO/K0856F360 DCT PIRUT PIRUT5P
Aircraft A319/M-SDE3FGHIRWY/LB1

Departure

Time 2026-05-05 05:06
Airport Tom Madsen (Dutch Harbor) Airport (PADU)

Arrival

Time 2026-05-05 08:33
Airport Yelizovo Airport (UHPP)
Time Latitude Longitude Altitude Speed Heading
2026-05-05 04:49 53.89505 -166.54106 21 ft 0 kts 241°
2026-05-05 05:03 53.89506 -166.54120 21 ft 4 kts 282°
2026-05-05 05:04 53.89534 -166.54080 23 ft 11 kts 75°
2026-05-05 05:04 53.89524 -166.53901 21 ft 19 kts 115°
2026-05-05 05:04 53.89457 -166.53784 21 ft 3 kts 86°
2026-05-05 05:04 53.89466 -166.53792 20 ft 1 kts 314°
2026-05-05 05:05 53.89469 -166.53798 20 ft 0 kts 316°
2026-05-05 05:05 53.89502 -166.53852 20 ft 34 kts 316°
2026-05-05 05:05 53.89871 -166.54454 23 ft 111 kts 316°
2026-05-05 05:06 53.90520 -166.55496 466 ft 124 kts 320°
2026-05-05 05:06 53.91173 -166.56444 1269 ft 124 kts 327°
2026-05-05 05:06 53.91903 -166.57363 1817 ft 139 kts 328°
2026-05-05 05:06 53.92805 -166.58064 2263 ft 147 kts 351°
2026-05-05 05:07 53.93847 -166.57878 2819 ft 160 kts 19°
2026-05-05 05:07 53.94772 -166.56782 3706 ft 160 kts 34°
2026-05-05 05:07 53.95702 -166.55523 4286 ft 185 kts 33°
2026-05-05 05:07 53.96827 -166.54061 4566 ft 223 kts 33°
2026-05-05 05:08 53.98152 -166.52337 4820 ft 263 kts 34°
2026-05-05 05:08 53.99687 -166.50319 5542 ft 280 kts 35°
2026-05-05 05:08 54.01175 -166.48339 7169 ft 262 kts 35°
2026-05-05 05:08 54.02557 -166.46491 8683 ft 243 kts 35°
2026-05-05 05:09 54.03908 -166.44868 9764 ft 236 kts 21°
2026-05-05 05:09 54.05509 -166.44584 10458 ft 237 kts 347°
2026-05-05 05:09 54.07116 -166.45399 11005 ft 250 kts 343°
2026-05-05 05:09 54.08844 -166.46364 11250 ft 273 kts 342°
2026-05-05 05:10 54.10726 -166.47436 11467 ft 297 kts 342°
2026-05-05 05:10 54.12762 -166.48589 11636 ft 320 kts 342°
2026-05-05 05:10 54.14930 -166.49804 12040 ft 333 kts 343°
2026-05-05 05:10 54.17149 -166.51041 12704 ft 338 kts 343°
2026-05-05 05:11 54.19402 -166.52294 13402 ft 342 kts 343°
2026-05-05 05:11 54.21673 -166.53593 14065 ft 347 kts 340°
2026-05-05 05:11 54.23692 -166.55887 14644 ft 357 kts 315°
2026-05-05 05:11 54.25010 -166.59535 15221 ft 367 kts 297°
2026-05-05 05:12 54.26031 -166.63568 15817 ft 372 kts 295°
2026-05-05 05:12 54.27003 -166.67705 16401 ft 377 kts 294°
2026-05-05 05:12 54.27958 -166.71907 16965 ft 382 kts 294°
2026-05-05 05:12 54.28925 -166.76169 17534 ft 386 kts 294°
2026-05-05 05:13 54.29911 -166.80472 18085 ft 391 kts 294°
2026-05-05 05:13 54.30920 -166.84821 18585 ft 395 kts 294°
2026-05-05 05:13 54.31947 -166.89210 19059 ft 400 kts 294°
2026-05-05 05:13 54.32993 -166.93647 19527 ft 404 kts 294°
2026-05-05 05:14 54.34049 -166.98133 20000 ft 408 kts 294°
2026-05-05 05:14 54.35115 -167.02666 20470 ft 412 kts 294°
2026-05-05 05:14 54.36186 -167.07243 20918 ft 416 kts 294°
2026-05-05 05:14 54.37278 -167.11930 21363 ft 419 kts 294°
2026-05-05 05:15 54.38362 -167.16600 21796 ft 423 kts 294°
2026-05-05 05:15 54.39451 -167.21308 22227 ft 427 kts 294°
2026-05-05 05:15 54.40548 -167.26066 22651 ft 430 kts 293°
2026-05-05 05:15 54.41651 -167.30860 23067 ft 434 kts 293°
2026-05-05 05:16 54.42765 -167.35701 23475 ft 437 kts 294°
2026-05-05 05:16 54.43888 -167.40570 23852 ft 440 kts 293°
2026-05-05 05:16 54.45013 -167.45477 24199 ft 443 kts 293°
2026-05-05 05:16 54.46135 -167.50407 24590 ft 444 kts 293°
2026-05-05 05:17 54.47260 -167.55364 24958 ft 446 kts 293°
2026-05-05 05:17 54.48392 -167.60353 25315 ft 448 kts 293°
2026-05-05 05:17 54.49523 -167.65357 25681 ft 450 kts 293°
2026-05-05 05:17 54.50659 -167.70390 26033 ft 452 kts 293°
2026-05-05 05:18 54.51800 -167.75442 26387 ft 454 kts 293°
2026-05-05 05:18 54.52947 -167.80515 26738 ft 456 kts 293°
2026-05-05 05:18 54.54095 -167.85608 27075 ft 457 kts 293°
2026-05-05 05:18 54.55244 -167.90723 27402 ft 459 kts 293°
2026-05-05 05:19 54.56396 -167.95872 27734 ft 461 kts 292°
2026-05-05 05:19 54.57547 -168.01027 28067 ft 462 kts 293°
2026-05-05 05:19 54.58700 -168.06204 28374 ft 464 kts 292°
2026-05-05 05:19 54.59854 -168.11410 28695 ft 465 kts 293°
2026-05-05 05:20 54.61009 -168.16639 29014 ft 467 kts 293°
2026-05-05 05:20 54.62156 -168.21869 29458 ft 465 kts 292°
2026-05-05 05:20 54.63300 -168.27075 29920 ft 463 kts 293°
2026-05-05 05:20 54.64442 -168.32264 30338 ft 461 kts 293°
2026-05-05 05:21 54.65574 -168.37431 30723 ft 459 kts 293°
2026-05-05 05:21 54.66697 -168.42585 31119 ft 457 kts 293°
2026-05-05 05:21 54.67828 -168.47779 31521 ft 455 kts 294°
2026-05-05 05:21 54.68940 -168.52885 31892 ft 453 kts 293°
2026-05-05 05:22 54.70044 -168.57978 32257 ft 451 kts 294°
2026-05-05 05:22 54.71142 -168.63052 32617 ft 450 kts 293°
2026-05-05 05:22 54.72235 -168.68117 32959 ft 449 kts 293°
2026-05-05 05:22 54.73324 -168.73179 33288 ft 448 kts 293°
2026-05-05 05:23 54.74410 -168.78226 33621 ft 447 kts 293°
2026-05-05 05:23 54.75493 -168.83273 33937 ft 447 kts 293°
2026-05-05 05:23 54.76571 -168.88307 34240 ft 446 kts 293°
2026-05-05 05:23 54.77647 -168.93349 34496 ft 446 kts 293°
2026-05-05 05:24 54.78715 -168.98382 34733 ft 445 kts 293°
2026-05-05 05:24 54.79777 -169.03410 34968 ft 445 kts 293°
2026-05-05 05:24 54.80844 -169.08461 35199 ft 445 kts 293°
2026-05-05 05:24 54.81912 -169.13498 35414 ft 445 kts 293°
2026-05-05 05:25 54.82980 -169.18528 35621 ft 445 kts 293°
2026-05-05 05:25 54.84045 -169.23566 35826 ft 445 kts 293°
2026-05-05 05:25 54.85102 -169.28611 36030 ft 445 kts 292°
2026-05-05 05:25 54.86150 -169.33651 36233 ft 444 kts 292°
2026-05-05 05:26 54.87198 -169.38700 36421 ft 444 kts 292°
2026-05-05 05:26 54.88246 -169.43750 36278 ft 444 kts 292°
2026-05-05 05:26 54.89287 -169.48777 36091 ft 442 kts 292°
2026-05-05 05:27 54.91365 -169.58849 36126 ft 444 kts 292°
2026-05-05 05:27 54.94485 -169.74006 36135 ft 444 kts 292°
2026-05-05 05:28 54.96552 -169.84125 36136 ft 444 kts 292°
2026-05-05 05:28 54.98605 -169.94250 36140 ft 443 kts 292°
2026-05-05 05:29 55.00646 -170.04378 36144 ft 443 kts 292°
2026-05-05 05:29 55.02696 -170.14574 36152 ft 443 kts 292°
2026-05-05 05:30 55.04726 -170.24710 36151 ft 443 kts 292°
2026-05-05 05:30 55.06745 -170.34849 36156 ft 443 kts 292°
2026-05-05 05:31 55.08753 -170.45007 36156 ft 443 kts 292°
2026-05-05 05:31 55.10747 -170.55172 36163 ft 443 kts 291°
2026-05-05 05:32 55.12738 -170.65343 36165 ft 442 kts 292°
2026-05-05 05:32 55.14722 -170.75515 36167 ft 442 kts 291°
2026-05-05 05:33 55.16536 -170.85790 36167 ft 445 kts 283°
2026-05-05 05:33 55.16723 -170.96644 36178 ft 451 kts 269°
2026-05-05 05:34 55.16242 -171.07582 36174 ft 451 kts 269°
2026-05-05 05:34 55.15751 -171.18534 36178 ft 451 kts 269°
2026-05-05 05:35 55.15252 -171.29463 36181 ft 451 kts 269°
2026-05-05 05:35 55.14750 -171.40389 36181 ft 451 kts 269°
2026-05-05 05:36 55.14247 -171.51309 36186 ft 450 kts 269°
2026-05-05 05:36 55.13808 -171.60443 36187 ft 450 kts 268°
2026-05-05 05:37 55.13272 -171.71331 36189 ft 450 kts 268°
2026-05-05 05:37 55.12728 -171.82224 36191 ft 450 kts 268°
2026-05-05 05:38 55.12169 -171.93108 36196 ft 449 kts 268°
2026-05-05 05:38 55.11608 -172.03968 36199 ft 449 kts 268°
2026-05-05 05:39 55.11040 -172.14814 36199 ft 449 kts 268°
2026-05-05 05:39 55.10472 -172.25663 36208 ft 448 kts 268°
2026-05-05 05:40 55.09886 -172.36540 36205 ft 450 kts 268°
2026-05-05 05:40 55.09280 -172.47417 36207 ft 450 kts 268°
2026-05-05 05:41 55.08662 -172.58291 36210 ft 450 kts 268°
2026-05-05 05:41 55.08038 -172.69164 36210 ft 450 kts 268°
2026-05-05 05:42 55.07408 -172.80104 36214 ft 450 kts 268°
2026-05-05 05:42 55.06780 -172.90965 36225 ft 450 kts 268°
2026-05-05 05:43 55.06124 -173.01819 36225 ft 450 kts 268°
2026-05-05 05:43 55.05465 -173.12668 36225 ft 450 kts 268°
2026-05-05 05:44 55.04796 -173.23503 36227 ft 449 kts 268°
2026-05-05 05:44 55.04119 -173.34328 36222 ft 449 kts 268°
2026-05-05 05:45 55.03440 -173.45140 36234 ft 448 kts 268°
2026-05-05 05:45 55.02751 -173.55944 36228 ft 448 kts 268°
2026-05-05 05:46 55.02042 -173.66736 36233 ft 448 kts 267°
2026-05-05 05:46 55.01323 -173.77524 36237 ft 448 kts 267°
2026-05-05 05:47 55.00604 -173.88301 36235 ft 448 kts 267°
2026-05-05 05:47 54.99874 -173.99076 36245 ft 448 kts 267°
2026-05-05 05:48 54.99131 -174.09829 36245 ft 447 kts 267°
2026-05-05 05:48 54.98383 -174.20573 36245 ft 447 kts 267°
2026-05-05 05:49 54.97622 -174.31297 36241 ft 446 kts 267°
2026-05-05 05:49 54.96855 -174.42014 36239 ft 446 kts 267°
2026-05-05 05:50 54.96075 -174.52805 36243 ft 446 kts 267°
2026-05-05 05:50 54.95685 -174.58163 34928 ft 447 kts 262°
2026-05-05 05:50 54.95290 -174.63540 35125 ft 449 kts 262°
2026-05-05 05:51 54.94889 -174.68925 35325 ft 450 kts 262°
2026-05-05 05:51 54.94482 -174.74317 35523 ft 450 kts 262°
2026-05-05 05:51 54.94074 -174.79722 35721 ft 451 kts 262°
2026-05-05 05:51 54.93670 -174.85142 35920 ft 451 kts 262°
2026-05-05 05:52 54.92849 -174.96028 36014 ft 456 kts 262°
2026-05-05 05:52 54.92009 -175.06954 36020 ft 456 kts 262°
2026-05-05 05:53 54.91151 -175.17850 36021 ft 455 kts 262°
2026-05-05 05:53 54.90292 -175.28746 36021 ft 455 kts 262°
2026-05-05 05:54 54.89425 -175.39644 36022 ft 455 kts 262°
2026-05-05 05:54 54.88553 -175.50519 36021 ft 455 kts 262°
2026-05-05 05:55 54.87664 -175.61403 36019 ft 455 kts 262°
2026-05-05 05:55 54.86768 -175.72264 36019 ft 455 kts 262°
2026-05-05 05:56 54.85863 -175.83104 37385 ft 449 kts 266°
2026-05-05 05:56 54.84957 -175.93762 37384 ft 444 kts 266°
2026-05-05 05:57 54.84043 -176.04357 37371 ft 444 kts 266°
2026-05-05 05:57 54.83120 -176.15009 37368 ft 443 kts 266°
2026-05-05 05:58 54.82206 -176.25507 37365 ft 443 kts 266°
2026-05-05 05:58 54.81276 -176.36134 37365 ft 443 kts 266°
2026-05-05 05:59 54.80343 -176.46681 37357 ft 443 kts 266°
2026-05-05 05:59 54.79395 -176.57218 37352 ft 443 kts 265°
2026-05-05 06:00 54.78432 -176.67747 37347 ft 442 kts 265°
2026-05-05 06:00 54.77472 -176.78270 37344 ft 442 kts 265°
2026-05-05 06:01 54.76496 -176.88772 37329 ft 442 kts 265°
2026-05-05 06:01 54.75514 -176.99257 37317 ft 441 kts 265°
2026-05-05 06:02 54.74527 -177.09737 37311 ft 441 kts 265°
2026-05-05 06:02 54.73526 -177.20202 37308 ft 440 kts 265°
2026-05-05 06:03 54.72521 -177.30653 37304 ft 440 kts 265°
2026-05-05 06:03 54.71510 -177.41084 37299 ft 440 kts 265°
2026-05-05 06:04 54.70482 -177.51508 37293 ft 440 kts 265°
2026-05-05 06:04 54.69449 -177.61924 37292 ft 439 kts 265°
2026-05-05 06:05 54.68405 -177.72389 37283 ft 439 kts 265°
2026-05-05 06:05 54.67361 -177.82768 37279 ft 438 kts 265°
2026-05-05 06:06 54.66309 -177.93135 37274 ft 438 kts 265°
2026-05-05 06:06 54.65248 -178.03478 37266 ft 437 kts 264°
2026-05-05 06:07 54.64174 -178.13809 37260 ft 437 kts 265°
2026-05-05 06:07 54.63126 -178.24123 37253 ft 436 kts 265°
2026-05-05 06:08 54.62090 -178.34418 37252 ft 435 kts 265°
2026-05-05 06:08 54.61036 -178.44691 37246 ft 435 kts 265°
2026-05-05 06:09 54.60149 -178.53224 37245 ft 434 kts 265°
2026-05-05 06:09 54.59076 -178.63467 37236 ft 434 kts 264°
2026-05-05 06:10 54.57994 -178.73694 37232 ft 433 kts 264°
2026-05-05 06:10 54.56904 -178.83901 37224 ft 433 kts 264°
2026-05-05 06:11 54.55808 -178.94151 37219 ft 432 kts 264°
2026-05-05 06:11 54.54711 -179.04302 37216 ft 431 kts 264°
2026-05-05 06:12 54.53604 -179.14443 37205 ft 431 kts 264°
2026-05-05 06:12 54.52493 -179.24573 37201 ft 430 kts 264°
2026-05-05 06:13 54.51369 -179.34667 37194 ft 429 kts 264°
2026-05-05 06:13 54.50245 -179.44759 37190 ft 429 kts 264°
2026-05-05 06:14 54.49106 -179.54821 37183 ft 428 kts 264°
2026-05-05 06:14 54.47961 -179.64869 37176 ft 428 kts 264°
2026-05-05 06:15 54.46814 -179.74899 37170 ft 427 kts 264°
2026-05-05 06:15 54.45663 -179.84914 37165 ft 427 kts 264°
2026-05-05 06:16 54.44500 -179.94916 37165 ft 427 kts 264°
2026-05-05 06:16 54.43323 179.95099 37154 ft 426 kts 264°
2026-05-05 06:17 54.42149 179.85138 37150 ft 425 kts 264°
2026-05-05 06:17 54.40970 179.75184 37144 ft 425 kts 264°
2026-05-05 06:18 54.39777 179.65258 37139 ft 424 kts 264°
2026-05-05 06:18 54.38572 179.55284 37128 ft 424 kts 264°
2026-05-05 06:19 54.37375 179.45395 37128 ft 423 kts 264°
2026-05-05 06:19 54.36167 179.35516 37115 ft 423 kts 264°
2026-05-05 06:20 54.34940 179.25666 37111 ft 422 kts 264°
2026-05-05 06:20 54.33718 179.15832 37105 ft 421 kts 264°
2026-05-05 06:21 54.32496 179.06020 37094 ft 421 kts 264°
2026-05-05 06:21 54.31264 178.96228 37089 ft 420 kts 264°
2026-05-05 06:22 54.30027 178.86467 37080 ft 419 kts 263°
2026-05-05 06:22 54.28779 178.76721 37072 ft 418 kts 263°
2026-05-05 06:23 54.27531 178.67007 37061 ft 418 kts 263°
2026-05-05 06:23 54.26273 178.57328 37052 ft 417 kts 263°
2026-05-05 06:24 54.25005 178.47664 37047 ft 416 kts 263°
2026-05-05 06:24 54.23738 178.38032 37038 ft 415 kts 263°
2026-05-05 06:25 54.22476 178.28422 37026 ft 414 kts 264°
2026-05-05 06:25 54.21273 178.18833 37022 ft 412 kts 264°
2026-05-05 06:26 54.20079 178.09199 37012 ft 411 kts 264°
2026-05-05 06:26 54.18894 177.99658 37005 ft 411 kts 264°
2026-05-05 06:27 54.17078 177.85383 36991 ft 409 kts 264°
2026-05-05 06:28 54.15862 177.75900 36982 ft 408 kts 264°
2026-05-05 06:28 54.14643 177.66452 36976 ft 408 kts 264°
2026-05-05 06:29 54.13417 177.57022 36969 ft 407 kts 264°
2026-05-05 06:29 54.12189 177.47623 36963 ft 406 kts 264°
2026-05-05 06:30 54.10955 177.38251 36952 ft 405 kts 264°
2026-05-05 06:30 54.09714 177.28907 36946 ft 404 kts 264°
2026-05-05 06:31 54.08475 177.19592 36941 ft 403 kts 264°
2026-05-05 06:31 54.07223 177.10309 36932 ft 402 kts 264°
2026-05-05 06:32 54.05969 177.01048 36923 ft 401 kts 264°
2026-05-05 06:32 54.04720 176.91827 36915 ft 400 kts 264°
2026-05-05 06:33 54.03464 176.82615 36908 ft 399 kts 264°
2026-05-05 06:33 54.02195 176.73382 36902 ft 398 kts 264°
2026-05-05 06:34 54.00917 176.64223 36847 ft 396 kts 264°
2026-05-05 06:34 54.00282 176.59677 36367 ft 394 kts 264°
2026-05-05 06:34 53.99651 176.55155 36201 ft 393 kts 264°
2026-05-05 06:35 53.98388 176.46107 36239 ft 394 kts 264°
2026-05-05 06:35 53.97122 176.37061 36233 ft 393 kts 264°
2026-05-05 06:36 53.95847 176.28041 36231 ft 393 kts 263°
2026-05-05 06:36 53.94555 176.19018 36229 ft 393 kts 263°
2026-05-05 06:37 53.93259 176.10017 36226 ft 393 kts 263°
2026-05-05 06:37 53.91959 176.01012 36224 ft 393 kts 263°
2026-05-05 06:38 53.90657 175.92012 36226 ft 393 kts 263°
2026-05-05 06:38 53.89350 175.83032 36226 ft 392 kts 263°
2026-05-05 06:39 53.88028 175.74059 36221 ft 392 kts 263°
2026-05-05 06:39 53.86699 175.65105 36219 ft 392 kts 262°
2026-05-05 06:40 53.85368 175.56158 36218 ft 391 kts 262°
2026-05-05 06:40 53.84028 175.47169 36211 ft 391 kts 262°
2026-05-05 06:41 53.82695 175.38247 36205 ft 391 kts 262°
2026-05-05 06:41 53.81576 175.30845 36203 ft 390 kts 262°
2026-05-05 06:42 53.80212 175.21960 36195 ft 390 kts 262°
2026-05-05 06:42 53.78849 175.13081 36193 ft 390 kts 262°
2026-05-05 06:43 53.77486 175.04212 36192 ft 390 kts 262°
2026-05-05 06:43 53.76120 174.95348 36187 ft 390 kts 262°
2026-05-05 06:44 53.74748 174.86497 36189 ft 390 kts 261°
2026-05-05 06:44 53.73366 174.77644 36189 ft 389 kts 261°
2026-05-05 06:45 53.71982 174.68809 36184 ft 389 kts 261°
2026-05-05 06:45 53.70589 174.59978 36183 ft 389 kts 261°
2026-05-05 06:46 53.69187 174.51101 36183 ft 389 kts 261°
2026-05-05 06:46 53.67786 174.42293 36185 ft 389 kts 261°
2026-05-05 06:47 53.66375 174.33502 36182 ft 388 kts 261°
2026-05-05 06:47 53.64963 174.24732 36177 ft 388 kts 261°
2026-05-05 06:48 53.63550 174.15966 36177 ft 387 kts 260°
2026-05-05 06:48 53.62129 174.07225 36169 ft 387 kts 260°
2026-05-05 06:49 53.60702 173.98498 36169 ft 386 kts 260°
2026-05-05 06:49 53.59271 173.89789 36170 ft 386 kts 259°
2026-05-05 06:50 53.57833 173.81096 36168 ft 385 kts 259°
2026-05-05 06:50 53.56386 173.72419 36169 ft 385 kts 259°
2026-05-05 06:51 53.54938 173.63769 36162 ft 384 kts 259°
2026-05-05 06:51 53.53655 173.55084 36158 ft 379 kts 267°
2026-05-05 06:52 53.53748 173.46294 36159 ft 376 kts 275°
2026-05-05 06:52 53.54065 173.37521 36154 ft 376 kts 275°
2026-05-05 06:53 53.54366 173.28737 36149 ft 376 kts 274°
2026-05-05 06:53 53.54658 173.19968 36143 ft 376 kts 274°
2026-05-05 06:54 53.54950 173.11145 36139 ft 375 kts 274°
2026-05-05 06:54 53.55240 173.02381 36137 ft 376 kts 274°
2026-05-05 06:55 53.55514 172.93605 36137 ft 376 kts 274°
2026-05-05 06:55 53.55784 172.84830 36133 ft 376 kts 273°
2026-05-05 06:56 53.56048 172.76052 36128 ft 376 kts 273°
2026-05-05 06:56 53.56308 172.67279 36123 ft 376 kts 273°
2026-05-05 06:57 53.56562 172.58504 36122 ft 376 kts 272°
2026-05-05 06:57 53.56804 172.49722 36119 ft 376 kts 272°
2026-05-05 06:58 53.57045 172.40936 36117 ft 376 kts 272°
2026-05-05 06:58 53.57286 172.32141 36115 ft 376 kts 272°
2026-05-05 06:59 53.57522 172.23338 36114 ft 377 kts 272°
2026-05-05 06:59 53.57749 172.14531 36110 ft 377 kts 272°
2026-05-05 07:00 53.57963 172.05719 36105 ft 377 kts 271°
2026-05-05 07:00 53.58172 171.96852 36101 ft 377 kts 271°
2026-05-05 07:01 53.58377 171.88042 36090 ft 377 kts 271°
2026-05-05 07:01 53.58565 171.79225 36094 ft 377 kts 271°
2026-05-05 07:02 53.58753 171.70417 36090 ft 377 kts 271°
2026-05-05 07:02 53.58940 171.61607 36086 ft 377 kts 271°
2026-05-05 07:03 53.59114 171.52788 36083 ft 377 kts 270°
2026-05-05 07:03 53.59280 171.43971 36077 ft 377 kts 270°
2026-05-05 07:04 53.59449 171.35153 36072 ft 377 kts 270°
2026-05-05 07:04 53.59605 171.26332 36068 ft 377 kts 270°
2026-05-05 07:05 53.59758 171.17499 36064 ft 378 kts 270°
2026-05-05 07:05 53.59901 171.08656 36062 ft 378 kts 270°
2026-05-05 07:06 53.60039 170.99800 36060 ft 378 kts 270°
2026-05-05 07:06 53.60172 170.90947 36055 ft 379 kts 269°
2026-05-05 07:07 53.60286 170.82079 36051 ft 379 kts 269°
2026-05-05 07:07 53.60401 170.73203 36043 ft 379 kts 269°
2026-05-05 07:08 53.60521 170.64261 36042 ft 380 kts 269°
2026-05-05 07:08 53.60628 170.55369 36036 ft 380 kts 269°
2026-05-05 07:09 53.60724 170.46455 36035 ft 381 kts 269°
2026-05-05 07:09 53.60820 170.37539 36033 ft 381 kts 269°
2026-05-05 07:10 53.60902 170.28607 36027 ft 382 kts 268°
2026-05-05 07:10 53.60986 170.19653 36025 ft 382 kts 268°
2026-05-05 07:11 53.61054 170.10698 36022 ft 383 kts 268°
2026-05-05 07:11 53.61118 170.01731 36016 ft 383 kts 268°
2026-05-05 07:12 53.61179 169.92754 36014 ft 384 kts 268°
2026-05-05 07:12 53.61238 169.83759 36019 ft 385 kts 267°
2026-05-05 07:13 53.61284 169.74741 36017 ft 385 kts 267°
2026-05-05 07:13 53.61317 169.65712 36011 ft 386 kts 266°
2026-05-05 07:14 53.61345 169.56674 36004 ft 386 kts 266°
2026-05-05 07:14 53.61379 169.47621 36003 ft 386 kts 266°
2026-05-05 07:15 53.61398 169.38576 35994 ft 386 kts 266°
2026-05-05 07:15 53.61405 169.29530 35990 ft 386 kts 266°
2026-05-05 07:16 53.61403 169.21953 35986 ft 386 kts 266°
2026-05-05 07:16 53.61411 169.12897 35982 ft 387 kts 266°
2026-05-05 07:17 53.61405 169.03836 35978 ft 387 kts 265°
2026-05-05 07:17 53.61385 168.94770 35974 ft 387 kts 265°
2026-05-05 07:18 53.61362 168.85705 35969 ft 387 kts 265°
2026-05-05 07:18 53.61334 168.76627 35966 ft 388 kts 265°
2026-05-05 07:19 53.61304 168.67538 35963 ft 388 kts 265°
2026-05-05 07:19 53.61265 168.58442 35959 ft 388 kts 265°
2026-05-05 07:20 53.61219 168.49280 35954 ft 389 kts 265°
2026-05-05 07:20 53.61165 168.40173 35951 ft 389 kts 264°
2026-05-05 07:21 53.61098 168.31052 35945 ft 389 kts 264°
2026-05-05 07:21 53.61027 168.21933 35949 ft 390 kts 264°
2026-05-05 07:22 53.60941 168.12798 35947 ft 390 kts 264°
2026-05-05 07:22 53.60855 168.03669 35947 ft 391 kts 264°
2026-05-05 07:23 53.60769 167.94513 35942 ft 391 kts 264°
2026-05-05 07:23 53.60672 167.85360 35936 ft 391 kts 263°
2026-05-05 07:24 53.60570 167.76192 35932 ft 392 kts 263°
2026-05-05 07:24 53.60461 167.67023 35924 ft 392 kts 263°
2026-05-05 07:25 53.60343 167.57847 35919 ft 392 kts 263°
2026-05-05 07:25 53.60209 167.48669 35913 ft 392 kts 263°
2026-05-05 07:26 53.60074 167.39480 35906 ft 393 kts 263°
2026-05-05 07:26 53.59937 167.30290 35895 ft 393 kts 263°
2026-05-05 07:27 53.59794 167.21091 35890 ft 393 kts 262°
2026-05-05 07:27 53.59637 167.11892 35865 ft 394 kts 262°
2026-05-05 07:28 53.59473 167.02669 35860 ft 394 kts 262°
2026-05-05 07:28 53.59304 166.93386 35851 ft 394 kts 262°
2026-05-05 07:29 53.59130 166.84146 35841 ft 395 kts 262°
2026-05-05 07:29 53.58941 166.74907 35832 ft 395 kts 262°
2026-05-05 07:30 53.58750 166.65651 35831 ft 396 kts 262°
2026-05-05 07:30 53.58453 166.51733 35813 ft 397 kts 261°
2026-05-05 07:31 53.58248 166.42445 35808 ft 398 kts 261°
2026-05-05 07:31 53.58031 166.33130 35798 ft 398 kts 261°
2026-05-05 07:32 53.57801 166.23816 35790 ft 399 kts 261°
2026-05-05 07:32 53.57564 166.14484 35786 ft 400 kts 261°
2026-05-05 07:33 53.57330 166.05128 35780 ft 400 kts 261°
2026-05-05 07:33 53.57078 165.95754 35782 ft 401 kts 260°
2026-05-05 07:34 53.56818 165.86368 35769 ft 402 kts 260°
2026-05-05 07:34 53.56559 165.76968 35764 ft 403 kts 260°
2026-05-05 07:35 53.56284 165.67551 35753 ft 403 kts 260°
2026-05-05 07:35 53.55997 165.58048 35744 ft 405 kts 260°
2026-05-05 07:36 53.55707 165.48594 35743 ft 406 kts 260°
2026-05-05 07:36 53.55410 165.39113 35731 ft 406 kts 260°
2026-05-05 07:37 53.55107 165.29615 35723 ft 407 kts 259°
2026-05-05 07:37 53.54795 165.20117 35714 ft 407 kts 259°
2026-05-05 07:38 53.54478 165.10593 35708 ft 408 kts 259°
2026-05-05 07:38 53.54152 165.01061 35697 ft 409 kts 259°
2026-05-05 07:39 53.53813 164.91501 35686 ft 410 kts 259°
2026-05-05 07:39 53.53456 164.81925 35681 ft 411 kts 259°
2026-05-05 07:40 53.53110 164.72325 35671 ft 412 kts 259°
2026-05-05 07:40 53.52754 164.62710 35664 ft 413 kts 259°
2026-05-05 07:41 53.52383 164.53078 35656 ft 414 kts 259°
2026-05-05 07:41 53.51999 164.43426 35646 ft 414 kts 259°
2026-05-05 07:42 53.51613 164.33747 35638 ft 415 kts 259°
2026-05-05 07:42 53.51223 164.23997 35630 ft 416 kts 259°
2026-05-05 07:43 53.50813 164.14287 35627 ft 417 kts 258°
2026-05-05 07:43 53.50396 164.04565 35614 ft 418 kts 258°
2026-05-05 07:44 53.49970 163.94815 35608 ft 419 kts 258°
2026-05-05 07:44 53.49537 163.85037 35598 ft 420 kts 258°
2026-05-05 07:45 53.49100 163.75230 35591 ft 422 kts 258°
2026-05-05 07:45 53.48651 163.65407 35582 ft 423 kts 258°
2026-05-05 07:46 53.48187 163.55554 35574 ft 424 kts 258°
2026-05-05 07:46 53.47716 163.45689 35567 ft 425 kts 258°
2026-05-05 07:47 53.47245 163.35787 35556 ft 426 kts 258°
2026-05-05 07:47 53.46752 163.25878 35546 ft 426 kts 258°
2026-05-05 07:48 53.46335 163.17561 35539 ft 427 kts 258°
2026-05-05 07:48 53.45832 163.07621 35540 ft 428 kts 258°
2026-05-05 07:49 53.45321 162.97657 35520 ft 429 kts 258°
2026-05-05 07:49 53.44797 162.87678 35515 ft 430 kts 258°
2026-05-05 07:50 53.44264 162.77682 35505 ft 431 kts 258°
2026-05-05 07:50 53.43720 162.67667 35501 ft 432 kts 258°
2026-05-05 07:51 53.43166 162.57632 35489 ft 433 kts 258°
2026-05-05 07:51 53.42608 162.47575 35489 ft 434 kts 258°
2026-05-05 07:52 53.42033 162.37507 35484 ft 434 kts 258°
2026-05-05 07:52 53.41455 162.27422 35474 ft 435 kts 258°
2026-05-05 07:53 53.40874 162.17347 35468 ft 435 kts 258°
2026-05-05 07:53 53.40272 162.07225 35460 ft 436 kts 258°
2026-05-05 07:54 53.39657 161.97097 35459 ft 437 kts 258°
2026-05-05 07:54 53.39035 161.86960 35456 ft 438 kts 258°
2026-05-05 07:55 53.38409 161.76813 35449 ft 438 kts 258°
2026-05-05 07:55 53.37773 161.66592 35438 ft 438 kts 258°
2026-05-05 07:56 53.37127 161.56429 35430 ft 439 kts 257°
2026-05-05 07:56 53.36467 161.46261 35428 ft 440 kts 257°
2026-05-05 07:57 53.35796 161.36064 35424 ft 441 kts 257°
2026-05-05 07:57 53.35121 161.25849 35417 ft 442 kts 258°
2026-05-05 07:58 53.34437 161.15633 35420 ft 442 kts 258°
2026-05-05 07:58 53.33746 161.05404 35418 ft 442 kts 257°
2026-05-05 07:59 53.33045 160.95169 35414 ft 443 kts 257°
2026-05-05 07:59 53.32327 160.84940 35407 ft 443 kts 257°
2026-05-05 08:00 53.31599 160.74702 35401 ft 443 kts 257°
2026-05-05 08:00 53.30868 160.64456 35394 ft 444 kts 257°
2026-05-05 08:01 53.30116 160.54221 35349 ft 443 kts 257°
2026-05-05 08:01 53.29732 160.49092 34458 ft 447 kts 257°
2026-05-05 08:01 53.29347 160.43939 33562 ft 445 kts 257°
2026-05-05 08:02 53.28966 160.38811 32562 ft 446 kts 256°
2026-05-05 08:02 53.28580 160.33630 31549 ft 452 kts 256°
2026-05-05 08:02 53.28187 160.28387 30555 ft 458 kts 256°
2026-05-05 08:02 53.27785 160.23068 29464 ft 466 kts 256°
2026-05-05 08:03 53.27366 160.17572 28121 ft 474 kts 256°
2026-05-05 08:03 53.26954 160.12150 26966 ft 479 kts 256°
2026-05-05 08:03 53.26534 160.06593 26309 ft 472 kts 256°
2026-05-05 08:03 53.26091 160.01275 25544 ft 464 kts 252°
2026-05-05 08:04 53.25234 159.96100 24971 ft 452 kts 243°
2026-05-05 08:04 53.24165 159.91151 24591 ft 453 kts 243°
2026-05-05 08:04 53.23115 159.86199 24154 ft 451 kts 243°
2026-05-05 08:04 53.22086 159.81278 23725 ft 449 kts 243°
2026-05-05 08:05 53.21062 159.76371 23292 ft 446 kts 243°
2026-05-05 08:05 53.20043 159.71507 22856 ft 443 kts 243°
2026-05-05 08:05 53.19023 159.66671 22387 ft 440 kts 243°
2026-05-05 08:05 53.18009 159.61891 21974 ft 436 kts 243°
2026-05-05 08:06 53.17001 159.57160 21559 ft 431 kts 243°
2026-05-05 08:06 53.16002 159.52489 21142 ft 426 kts 243°
2026-05-05 08:06 53.15008 159.47859 20730 ft 422 kts 243°
2026-05-05 08:06 53.14021 159.43283 20319 ft 418 kts 243°
2026-05-05 08:07 53.13040 159.38753 19925 ft 414 kts 243°
2026-05-05 08:07 53.12066 159.34266 19533 ft 410 kts 243°
2026-05-05 08:07 53.11103 159.29832 19135 ft 406 kts 244°
2026-05-05 08:07 53.10148 159.25427 18750 ft 402 kts 244°
2026-05-05 08:08 53.09200 159.21070 18361 ft 399 kts 244°
2026-05-05 08:08 53.08254 159.16737 17481 ft 399 kts 250°
2026-05-05 08:08 53.07307 159.12399 17234 ft 399 kts 250°
2026-05-05 08:08 53.06362 159.08070 16984 ft 398 kts 250°
2026-05-05 08:09 53.05415 159.03754 16740 ft 397 kts 250°
2026-05-05 08:09 53.04467 158.99455 16484 ft 395 kts 250°
2026-05-05 08:09 53.03520 158.95183 16235 ft 394 kts 250°
2026-05-05 08:09 53.02574 158.90918 15988 ft 392 kts 250°
2026-05-05 08:10 53.01679 158.86655 15731 ft 391 kts 255°
2026-05-05 08:10 53.01246 158.82153 15476 ft 390 kts 267°
2026-05-05 08:10 53.01402 158.77732 15259 ft 389 kts 279°
2026-05-05 08:10 53.02137 158.73369 14903 ft 387 kts 292°
2026-05-05 08:11 53.03361 158.69398 14529 ft 385 kts 299°
2026-05-05 08:11 53.04669 158.65529 14152 ft 384 kts 299°
2026-05-05 08:11 53.05964 158.61664 13777 ft 381 kts 298°
2026-05-05 08:11 53.07247 158.57815 13407 ft 379 kts 298°
2026-05-05 08:12 53.08518 158.53986 13037 ft 377 kts 298°
2026-05-05 08:12 53.09781 158.50173 12669 ft 375 kts 298°
2026-05-05 08:12 53.11038 158.46383 12305 ft 373 kts 298°
2026-05-05 08:12 53.12289 158.42609 11942 ft 371 kts 298°
2026-05-05 08:13 53.13532 158.38853 11581 ft 369 kts 298°
2026-05-05 08:13 53.14770 158.35114 11223 ft 367 kts 298°
2026-05-05 08:13 53.15992 158.31412 10985 ft 358 kts 298°
2026-05-05 08:13 53.17159 158.27875 11003 ft 338 kts 298°
2026-05-05 08:14 53.18259 158.24530 11007 ft 320 kts 298°
2026-05-05 08:14 53.19303 158.21356 11008 ft 304 kts 298°
2026-05-05 08:14 53.20303 158.18306 10874 ft 296 kts 298°
2026-05-05 08:14 53.21294 158.15282 10432 ft 298 kts 298°
2026-05-05 08:15 53.22291 158.12237 10035 ft 298 kts 298°
2026-05-05 08:15 53.23271 158.09253 9803 ft 291 kts 299°
2026-05-05 08:15 53.24510 158.06621 9463 ft 289 kts 317°
2026-05-05 08:15 53.26184 158.04815 9092 ft 287 kts 336°
2026-05-05 08:16 53.28112 158.04003 8718 ft 286 kts 355°
2026-05-05 08:16 53.30080 158.04274 8425 ft 282 kts 14°
2026-05-05 08:16 53.31936 158.05095 8295 ft 270 kts 14°
2026-05-05 08:16 53.33720 158.05869 8478 ft 262 kts 21°
2026-05-05 08:17 53.35477 158.06621 8216 ft 259 kts 21°
2026-05-05 08:17 53.37215 158.07362 7931 ft 256 kts 21°
2026-05-05 08:17 53.38931 158.08097 7648 ft 253 kts 21°
2026-05-05 08:17 53.40495 158.09274 7462 ft 233 kts 47°
2026-05-05 08:18 53.41486 158.11213 7327 ft 209 kts 71°
2026-05-05 08:18 53.41897 158.13417 7200 ft 190 kts 92°
2026-05-05 08:18 53.41963 158.15583 7001 ft 185 kts 94°
2026-05-05 08:18 53.42024 158.17722 6780 ft 184 kts 93°
2026-05-05 08:19 53.42087 158.19849 6541 ft 182 kts 93°
2026-05-05 08:19 53.42147 158.21903 6294 ft 182 kts 92°
2026-05-05 08:26 53.42148 158.21945 6285 ft 182 kts 92°
2026-05-05 08:26 53.42186 158.24052 6024 ft 181 kts 92°
2026-05-05 08:26 53.42090 158.26115 5772 ft 176 kts 110°
2026-05-05 08:27 53.41411 158.27804 5493 ft 178 kts 137°
2026-05-05 08:27 53.40304 158.28782 5232 ft 182 kts 152°
2026-05-05 08:27 53.39125 158.29599 4925 ft 185 kts 152°
2026-05-05 08:27 53.37936 158.30431 4626 ft 186 kts 152°
2026-05-05 08:28 53.36738 158.31270 4330 ft 187 kts 152°
2026-05-05 08:28 53.35535 158.32111 4070 ft 187 kts 152°
2026-05-05 08:28 53.34333 158.32951 3767 ft 188 kts 152°
2026-05-05 08:28 53.33118 158.33800 3428 ft 192 kts 152°
2026-05-05 08:29 53.31869 158.34676 3031 ft 197 kts 152°
2026-05-05 08:29 53.30625 158.35542 2662 ft 191 kts 152°
2026-05-05 08:29 53.29415 158.36382 2325 ft 183 kts 152°
2026-05-05 08:30 53.27233 158.37899 1872 ft 153 kts 152°
2026-05-05 08:30 53.26302 158.38548 1674 ft 138 kts 152°
2026-05-05 08:30 53.25433 158.39155 1493 ft 134 kts 152°
2026-05-05 08:30 53.24568 158.39759 1344 ft 132 kts 153°
2026-05-05 08:31 53.23740 158.40337 1184 ft 130 kts 152°
2026-05-05 08:31 53.22896 158.40924 1028 ft 130 kts 153°
2026-05-05 08:31 53.22079 158.41493 882 ft 128 kts 153°
2026-05-05 08:31 53.21245 158.42072 706 ft 128 kts 153°
2026-05-05 08:32 53.20424 158.42643 565 ft 128 kts 153°
2026-05-05 08:32 53.19606 158.43210 394 ft 127 kts 152°
2026-05-05 08:32 53.18787 158.43780 241 ft 127 kts 153°
2026-05-05 08:32 53.17971 158.44339 139 ft 124 kts 151°
2026-05-05 08:33 53.17299 158.44827 138 ft 85 kts 157°
2026-05-05 08:33 53.16911 158.45092 136 ft 27 kts 163°
2026-05-05 08:33 53.16791 158.45152 138 ft 12 kts 116°
2026-05-05 08:33 53.16821 158.45145 138 ft 5 kts 331°
2026-05-05 08:34 53.16870 158.45119 137 ft 11 kts 336°
2026-05-05 08:34 53.16962 158.45051 136 ft 16 kts 335°
2026-05-05 08:34 53.17061 158.44974 136 ft 15 kts 336°
2026-05-05 08:34 53.17155 158.44911 136 ft 14 kts 339°
2026-05-05 08:35 53.17236 158.44860 138 ft 11 kts 339°
2026-05-05 08:35 53.17302 158.44816 138 ft 10 kts 338°
2026-05-05 08:35 53.17360 158.44776 138 ft 8 kts 338°
2026-05-05 08:35 53.17408 158.44742 139 ft 8 kts 337°
2026-05-05 08:36 53.17483 158.44685 139 ft 16 kts 336°
2026-05-05 08:36 53.17580 158.44580 138 ft 17 kts 291°
2026-05-05 08:36 53.17537 158.44359 137 ft 23 kts 247°
2026-05-05 08:36 53.17478 158.44123 137 ft 21 kts 247°
2026-05-05 08:37 53.17417 158.43918 137 ft 19 kts 239°
2026-05-05 08:37 53.17355 158.43743 137 ft 16 kts 239°
2026-05-05 08:37 53.17301 158.43592 137 ft 14 kts 239°
2026-05-05 08:37 53.17254 158.43461 137 ft 12 kts 239°
2026-05-05 08:38 53.17216 158.43351 137 ft 10 kts 241°
2026-05-05 08:38 53.17182 158.43244 137 ft 12 kts 242°
2026-05-05 08:38 53.17140 158.43118 137 ft 13 kts 240°
2026-05-05 08:38 53.17089 158.42978 137 ft 15 kts 231°
2026-05-05 08:39 53.16995 158.42994 137 ft 16 kts 150°
2026-05-05 08:39 53.16898 158.43075 137 ft 14 kts 180°
2026-05-05 08:39 53.16853 158.43001 137 ft 6 kts 240°
2026-05-05 08:39 53.16846 158.42978 137 ft 0 kts 241°